Regional Weather Roundup
Issued by NWS

Home | Current Version | Previous Version | Graphics & Text | Print | Product List | Glossary On
Versions: 1 2 3 4 5 6 7 8 9 10 11 12 13 14 15 16 17 18 19 20 21 22 23 24 25 26 27 28 29 30 31 32 33 34 35 36 37 38 39 40 41 42 43 44 45 46 47 48 49 50
000
ASUS43 KLMK 281610
RWRKY
KENTUCKY REGIONAL WEATHER ROUNDUP
NATIONAL WEATHER SERVICE LOUISVILLE KY
1100 AM EST FRI NOV 28 2014

NOTE "FAIR" INDICATES FEW OR NO CLOUDS BELOW 12,000 FEET
WITH NO SIGNIFICANT WEATHER AND/OR OBSTRUCTIONS TO VISIBILITY.

KYZ001>023-026-027-061>063-070>075-281700-
WESTERN AND SOUTH CENTRAL KENTUCKY

CITY           SKY/WX    TMP DP  RH WIND       PRES   REMARKS
PADUCAH        SUNNY     37  27  67 S10       30.35F WCI  30
HENDERSON      SUNNY     34  27  75 S12G17    30.36F WCI  25
OWENSBORO      SUNNY     33  25  73 S16       30.38F WCI  22
HOPKINSVILLE   SUNNY     35  24  62 SE9       30.39F WCI  28
BOWLING GREEN  SUNNY     35  20  54 S9        30.42S WCI  28
GLASGOW        SUNNY     33  21  61 SE8       30.39F WCI  26
$$

KYZ024-025-028>034-038-045-046-053-281700-
NORTH CENTRAL KENTUCKY

CITY           SKY/WX    TMP DP  RH WIND       PRES   REMARKS
LOUISVILLE/SDF PTSUNNY   32  22  66 SE6       30.40S WCI  26
LOUISVILLE/LOU PTSUNNY   30  21  69 S7        30.41S WCI  23
FORT KNOX      SUNNY     31  23  72 S8        30.38S WCI  24
$$

KYZ035>037-039>044-047>052-055>060-089>105-281700-
NORTHEAST KENTUCKY

CITY           SKY/WX    TMP DP  RH WIND       PRES   REMARKS
LEXINGTON      SUNNY     30  18  60 S12       30.39F WCI  20
COVINGTON      CLOUDY    30  17  58 S10       30.37S WCI  21
FRANKFORT      PTSUNNY   30  19  63 SW6       30.39S WCI  24
$$

KYZ054-064>069-076>088-106>120-281700-
SOUTHEAST KENTUCKY

CITY           SKY/WX    TMP DP  RH WIND       PRES   REMARKS
JACKSON        CLOUDY    29  16  58 VRB5      30.39F WCI  24
LONDON         CLOUDY    30  17  58 VRB3      30.40F
SOMERSET       SUNNY     30  19  64 SE5       30.42F WCI  25
MIDDLESBORO    NOT AVBL
MONTICELLO     MOSUNNY   32  21  64 SE6       30.44F WCI  26
$$




USA.gov is the U.S. government's official web portal to all federal, state and local government web resources and services.